Wind_Speed
48 50 52 54 56 58 61 63 64 65 65 66 67 68 69 69 70 71 71 71 69 68 66 65 64 63 62 61 61 62 62 63 64 65 65 66 66 66
51 53 55 57 59 61 62 64 65 65 64 65 66 67 67 68 68 68 66 63 61 60 59 58 57 55 54 52 52 52 53 54 55 57 58 59 61 62
54 56 57 58 60 61 62 62 63 63 63 62 64 65 65 65 64 62 60 57 54 51 50 48 47 46 44 43 42 42 42 43 44 46 47 50 53 55
56 57 58 58 59 59 60 60 60 61 61 60 61 62 61 59 58 55 52 49 46 44 42 41 40 39 38 37 36 35 34 34 35 37 38 40 43 47
57 57 57 57 57 58 58 58 58 58 59 59 58 57 55 53 50 47 44 42 41 40 39 38 37 36 35 34 32 31 30 30 30 30 31 33 35 38
56 55 55 55 55 55 55 56 56 57 56 55 52 49 47 44 42 40 39 39 38 38 37 36 35 34 33 32 31 30 30 29 29 29 29 30 31 33
55 55 54 54 53 53 53 54 54 53 51 48 45 41 39 38 38 38 38 36 35 35 33 32 32 31 31 30 30 29 29 29 29 29 29 29 30 31
53 53 52 51 50 50 51 51 50 47 44 41 37 35 35 36 36 35 34 32 30 30 29 28 28 28 28 28 28 28 28 29 29 29 29 29 30 31
51 50 49 49 47 47 47 46 43 41 37 34 32 33 34 33 32 30 29 28 28 26 25 24 25 26 26 25 25 26 26 27 28 28 29 29 30 30
48 47 46 45 44 42 41 39 37 34 32 31 32 32 31 29 28 28 27 26 25 25 24 23 24 24 24 24 23 23 24 24 25 26 27 28 29 29
44 43 42 40 38 36 34 32 30 28 29 30 29 28 27 27 26 26 25 24 23 23 24 24 24 24 24 23 22 21 21 21 22 23 24 25 26 26
40 38 36 33 31 29 26 24 23 24 25 26 26 25 26 26 25 24 23 22 22 22 23 24 23 22 21 22 22 20 19 18 18 19 20 21 22 22
33 31 29 25 23 21 19 18 19 20 21 22 23 23 24 24 24 23 21 21 21 22 22 22 21 20 19 19 19 18 16 16 15 16 16 17 18 18
26 24 20 16 14 13 13 15 16 17 18 20 21 21 22 21 21 20 20 20 20 21 21 20 20 19 18 17 16 15 15 14 13 12 12 13 13 14
17 13 9 7 7 8 10 12 13 15 17 19 20 20 20 19 19 19 20 20 20 20 20 20 20 19 19 17 16 15 14 13 11 9 8 8 9 10
6 3 2 2 4 7 8 10 12 15 17 18 19 19 18 18 18 19 20 20 20 21 21 21 21 21 21 21 19 17 15 13 10 7 5 4 5 6
2 3 4 5 6 7 8 11 13 15 17 18 18 18 18 18 18 19 20 21 22 22 22 22 23 23 24 24 22 20 18 15 11 7 3 1 3 5
6 6 6 7 7 8 10 12 13 15 16 17 18 19 19 19 18 19 19 21 21 22 23 23 24 25 26 26 25 22 20 17 14 10 8 6 6 7
9 9 9 9 10 11 12 13 14 15 17 18 19 19 19 19 19 19 19 20 21 22 23 24 24 25 26 26 26 25 23 20 18 15 12 10 10 9
11 11 12 12 13 13 14 15 16 17 17 18 18 19 19 19 19 19 19 19 20 21 22 22 23 24 25 27 27 26 25 24 22 19 16 15 13 12
13 13 14 14 14 15 15 16 17 18 18 18 19 19 19 19 19 19 19 19 19 20 20 20 22 23 25 26 26 26 26 26 25 22 20 18 17 16
15 15 15 15 15 15 16 16 16 17 18 19 19 20 20 20 20 20 20 19 19 18 19 19 20 22 23 24 25 26 27 27 26 25 23 22 20 19
15 15 15 15 14 15 15 15 15 16 18 18 19 19 20 20 20 20 20 20 19 19 18 19 19 20 22 23 24 25 26 26 26 25 24 24 23 21
Wind_Direction
293 292 291 291 291 290 290 290 290 290 291 291 291 291 291 291 291 291 291 290 290 289 288 287 285 284 282 279 277 273 270 267 263 260 257 255 254 252
292 291 291 290 290 290 290 291 291 292 292 292 292 292 292 292 292 293 293 292 291 290 290 289 288 285 283 281 279 276 272 268 265 261 258 255 252 251
292 291 291 291 291 291 292 293 293 294 294 294 294 294 294 294 294 294 294 293 292 292 291 291 290 288 286 284 281 278 274 271 266 262 258 255 252 250
293 293 293 293 293 294 294 295 295 295 296 296 295 295 296 296 296 295 295 294 294 293 292 292 291 290 288 286 283 280 276 273 268 263 258 254 251 249
295 295 295 295 296 296 296 296 297 297 297 298 298 297 297 297 297 297 297 296 296 295 293 293 292 290 288 286 283 280 276 273 270 265 260 255 251 249
296 296 297 297 297 297 298 298 298 299 299 300 300 299 299 299 300 300 300 299 298 297 296 295 293 291 288 286 283 280 276 272 269 265 261 257 254 251
296 297 297 298 298 298 299 299 300 301 301 302 302 302 302 302 302 303 302 302 301 299 299 297 295 293 290 287 284 281 277 273 269 264 261 258 256 254
296 297 298 298 299 299 300 301 302 302 303 303 304 304 305 305 306 305 306 306 305 303 303 301 300 298 295 291 286 281 276 272 268 264 261 258 257 256
296 297 297 298 299 301 302 303 303 303 304 306 307 308 309 309 310 311 312 312 312 309 307 305 304 302 299 296 291 286 280 275 269 265 261 259 258 257
296 297 298 299 301 301 302 302 303 305 307 310 312 314 316 316 317 317 317 317 316 315 314 311 308 307 306 303 299 293 285 279 272 266 262 259 258 259
296 297 298 299 300 300 300 301 304 306 310 314 317 319 321 323 324 324 324 324 322 320 319 318 314 311 310 307 305 299 291 284 276 269 264 261 260 258
295 295 296 297 297 298 300 302 306 311 315 319 322 325 328 330 330 329 329 329 328 326 325 325 323 319 316 313 310 304 297 289 281 274 269 264 260 258
294 294 295 295 295 297 301 307 313 318 323 326 328 331 335 337 337 338 337 336 336 335 335 334 333 331 328 322 316 312 305 298 289 281 275 267 261 257
293 293 293 292 294 301 310 318 325 330 333 336 340 343 346 349 351 352 352 350 348 347 347 347 346 345 342 338 333 327 321 311 301 290 278 268 257 251
293 291 290 293 305 319 329 335 340 344 348 352 354 356 358 1 3 4 3 2 3 3 3 4 3 2 1 357 352 345 338 328 317 304 286 268 250 241
291 292 316 349 354 353 354 356 359 2 3 4 6 7 9 12 14 15 14 15 16 16 16 16 16 16 14 11 7 3 358 352 343 330 307 264 233 219
89 78 65 45 28 21 19 19 17 16 16 17 18 20 22 23 24 24 25 26 26 27 27 26 25 23 20 16 12 11 11 11 12 15 27 87 153 169
88 80 70 61 54 49 44 37 31 29 29 28 28 29 30 31 31 32 31 31 31 31 31 30 28 27 24 21 21 21 23 26 32 45 61 86 108 126
86 82 80 77 73 66 58 50 44 41 38 35 34 34 35 35 36 36 35 34 34 33 32 31 30 29 28 28 30 31 35 39 47 56 65 80 98 111
88 89 88 86 81 73 65 58 53 47 43 40 38 37 36 36 35 35 34 34 34 34 33 32 32 33 34 34 35 38 42 47 52 58 67 78 92 104
92 92 92 87 82 76 69 62 56 50 46 43 41 39 37 36 35 34 34 33 33 33 32 33 33 34 36 37 39 42 47 50 54 59 68 77 87 98
93 93 91 88 82 77 71 64 57 52 48 44 41 38 36 35 34 33 33 32 31 31 31 33 34 36 38 40 43 46 50 53 56 61 68 76 84 93
93 92 90 88 84 78 71 63 57 52 48 44 40 37 35 33 32 32 32 32 32 31 31 33 35 37 39 41 44 48 52 55 58 61 68 74 80 88
Height
5760 5757 5752 5747 5743 5738 5733 5728 5724 5721 5716 5707 5699 5692 5685 5678 5670 5663 5657 5650 5643 5636 5630 5624 5618 5613 5609 5604 5601 5598 5597 5598 5600 5602 5606 5611 5615 5620
5748 5743 5739 5734 5729 5723 5718 5712 5706 5702 5698 5691 5682 5674 5667 5660 5652 5645 5638 5632 5625 5618 5612 5606 5600 5595 5590 5586 5582 5580 5579 5578 5579 5582 5585 5589 5594 5599
5734 5730 5725 5720 5714 5708 5702 5696 5690 5684 5680 5675 5665 5657 5649 5642 5635 5627 5621 5615 5609 5603 5596 5590 5585 5580 5575 5571 5568 5566 5564 5563 5564 5565 5568 5571 5576 5581
5720 5715 5710 5705 5699 5694 5688 5681 5675 5668 5662 5658 5650 5641 5633 5625 5618 5612 5605 5600 5594 5589 5583 5578 5573 5568 5564 5560 5557 5554 5553 5552 5552 5552 5554 5557 5561 5564
5705 5700 5695 5690 5685 5679 5673 5667 5660 5653 5646 5640 5634 5625 5618 5610 5604 5598 5592 5587 5581 5576 5572 5567 5562 5558 5554 5550 5547 5545 5544 5543 5543 5543 5544 5545 5548 5552
5691 5686 5681 5676 5671 5665 5659 5653 5646 5639 5632 5625 5619 5612 5604 5597 5592 5587 5582 5576 5571 5565 5560 5556 5552 5548 5544 5541 5538 5536 5535 5534 5534 5534 5535 5536 5538 5541
5677 5672 5668 5663 5658 5651 5645 5639 5632 5626 5619 5612 5606 5600 5594 5588 5582 5577 5571 5566 5561 5555 5551 5546 5542 5539 5535 5532 5529 5527 5526 5525 5525 5525 5526 5528 5529 5531
5664 5659 5655 5650 5645 5639 5632 5626 5620 5614 5608 5602 5596 5590 5585 5579 5573 5567 5562 5557 5553 5548 5543 5538 5534 5530 5526 5523 5521 5519 5517 5516 5516 5517 5517 5518 5520 5522
5651 5646 5642 5637 5632 5627 5621 5615 5609 5603 5598 5593 5588 5583 5577 5571 5566 5560 5554 5549 5544 5540 5536 5532 5527 5523 5519 5515 5513 5510 5509 5507 5507 5507 5508 5509 5511 5512
5637 5633 5629 5625 5620 5616 5611 5605 5600 5595 5591 5586 5581 5575 5570 5564 5558 5553 5548 5544 5539 5533 5529 5526 5521 5517 5513 5509 5505 5503 5501 5499 5498 5498 5499 5500 5501 5502
5625 5621 5618 5614 5610 5606 5602 5598 5594 5589 5585 5580 5575 5569 5564 5558 5553 5548 5543 5538 5534 5529 5524 5520 5515 5511 5507 5502 5499 5496 5493 5492 5491 5490 5490 5491 5492 5493
5613 5610 5607 5604 5601 5598 5595 5592 5589 5585 5580 5575 5570 5565 5560 5554 5549 5543 5538 5534 5530 5525 5520 5515 5510 5505 5502 5497 5493 5490 5487 5485 5484 5483 5483 5484 5484 5485
5602 5600 5598 5596 5594 5592 5590 5587 5584 5581 5577 5572 5567 5562 5556 5551 5545 5540 5535 5531 5526 5521 5517 5511 5506 5501 5497 5493 5489 5485 5482 5480 5478 5477 5477 5477 5478 5479
5593 5592 5591 5590 5589 5588 5586 5584 5581 5578 5574 5569 5564 5559 5554 5549 5544 5539 5534 5529 5525 5520 5514 5509 5504 5499 5495 5490 5486 5482 5479 5476 5474 5473 5472 5472 5472 5473
5586 5586 5586 5586 5586 5585 5584 5582 5579 5576 5572 5567 5563 5558 5553 5549 5544 5539 5534 5530 5525 5519 5514 5509 5504 5499 5494 5489 5485 5481 5477 5474 5471 5469 5468 5468 5469 5470
5583 5583 5584 5585 5585 5584 5583 5581 5578 5575 5571 5567 5562 5558 5554 5549 5545 5540 5536 5531 5526 5521 5516 5511 5506 5501 5496 5490 5485 5480 5476 5472 5469 5467 5466 5466 5467 5468
5582 5583 5584 5585 5585 5584 5583 5581 5578 5575 5572 5568 5564 5559 5555 5551 5547 5543 5538 5534 5529 5524 5520 5515 5509 5504 5499 5493 5487 5482 5477 5472 5469 5467 5466 5466 5467 5468
5583 5584 5585 5585 5585 5585 5583 5582 5579 5576 5573 5570 5566 5562 5558 5553 5549 5546 5542 5537 5533 5528 5523 5519 5513 5508 5503 5497 5491 5485 5479 5475 5471 5469 5468 5468 5469 5470
5585 5586 5586 5587 5586 5586 5585 5583 5581 5579 5575 5572 5569 5565 5561 5557 5553 5549 5545 5541 5537 5532 5528 5523 5518 5513 5508 5502 5496 5490 5484 5479 5476 5473 5472 5472 5473 5474
5588 5588 5588 5589 5589 5588 5587 5586 5584 5581 5578 5575 5572 5568 5565 5561 5557 5553 5549 5545 5541 5537 5532 5528 5524 5519 5513 5508 5502 5496 5491 5486 5482 5480 5478 5477 5478 5479
5591 5591 5591 5592 5592 5592 5591 5589 5587 5585 5582 5579 5576 5572 5569 5565 5561 5557 5553 5549 5545 5541 5537 5533 5528 5524 5518 5514 5509 5504 5499 5494 5491 5487 5485 5484 5484 5485
5594 5595 5595 5595 5596 5595 5594 5593 5591 5589 5586 5583 5580 5576 5573 5569 5565 5561 5557 5553 5549 5545 5542 5538 5533 5529 5525 5521 5516 5511 5507 5503 5499 5496 5494 5493 5493 5493
5598 5599 5599 5599 5599 5599 5598 5597 5595 5593 5590 5587 5584 5581 5577 5573 5569 5565 5561 5557 5554 5550 5546 5542 5538 5535 5531 5527 5523 5519 5515 5512 5509 5507 5505 5502 5501 5502